QPF
0.00 0.00 0.00 0.00 0.00 0.00 0.00 0.00 0.00 0.00 0.00 0.00 0.00 0.00 0.00 0.00 0.00 0.00 0.00 0.00 0.00 0.00 0.00 0.00 0.00 0.00 0.00 0.00 0.00 0.00 0.00 0.00 0.00 0.00 0.00 0.00 0.00 0.00 0.00 0.00 0.00 0.00 0.00 0.00 0.01
0.00 0.00 0.00 0.00 0.00 0.00 0.00 0.00 0.00 0.00 0.00 0.00 0.00 0.00 0.00 0.00 0.00 0.00 0.00 0.00 0.00 0.00 0.00 0.00 0.00 0.00 0.00 0.00 0.00 0.00 0.00 0.00 0.00 0.00 0.00 0.00 0.00 0.00 0.00 0.00 0.00 0.00 0.00 0.00 0.02
0.00 0.00 0.00 0.00 0.00 0.00 0.00 0.00 0.00 0.00 0.00 0.00 0.00 0.00 0.00 0.00 0.00 0.00 0.00 0.00 0.00 0.00 0.00 0.00 0.00 0.00 0.00 0.00 0.00 0.00 0.00 0.00 0.00 0.00 0.00 0.00 0.00 0.00 0.00 0.00 0.00 0.00 0.00 0.00 0.02
0.00 0.00 0.00 0.00 0.00 0.00 0.00 0.00 0.00 0.00 0.00 0.00 0.00 0.00 0.00 0.00 0.00 0.00 0.00 0.00 0.00 0.00 0.00 0.00 0.00 0.00 0.00 0.00 0.00 0.00 0.00 0.00 0.00 0.00 0.00 0.00 0.00 0.00 0.00 0.00 0.00 0.00 0.00 0.00 0.00
0.00 0.00 0.00 0.00 0.00 0.00 0.00 0.00 0.00 0.00 0.00 0.00 0.00 0.00 0.00 0.00 0.00 0.00 0.00 0.00 0.00 0.00 0.00 0.00 0.00 0.00 0.00 0.00 0.00 0.00 0.00 0.00 0.00 0.00 0.00 0.00 0.00 0.00 0.00 0.00 0.00 0.00 0.00 0.00 0.00
0.00 0.00 0.00 0.00 0.00 0.00 0.00 0.00 0.00 0.00 0.00 0.00 0.00 0.00 0.00 0.00 0.00 0.00 0.00 0.00 0.00 0.00 0.00 0.00 0.00 0.00 0.00 0.00 0.01 0.00 0.00 0.00 0.00 0.00 0.00 0.00 0.00 0.00 0.00 0.00 0.00 0.00 0.00 0.00 0.00
0.00 0.00 0.00 0.00 0.00 0.00 0.00 0.00 0.00 0.00 0.00 0.00 0.00 0.00 0.00 0.00 0.00 0.00 0.00 0.00 0.00 0.00 0.00 0.00 0.00 0.00 0.00 0.00 0.00 0.00 0.00 0.00 0.00 0.00 0.00 0.00 0.00 0.00 0.00 0.00 0.00 0.00 0.00 0.00 0.00
0.00 0.00 0.00 0.00 0.00 0.00 0.00 0.00 0.00 0.00 0.00 0.00 0.00 0.00 0.00 0.00 0.00 0.00 0.00 0.00 0.00 0.00 0.00 0.00 0.00 0.00 0.00 0.00 0.00 0.00 0.02 0.01 0.00 0.00 0.00 0.00 0.00 0.00 0.00 0.00 0.00 0.00 0.00 0.00 0.00
0.00 0.00 0.00 0.00 0.00 0.00 0.00 0.00 0.00 0.00 0.00 0.00 0.00 0.00 0.00 0.00 0.00 0.00 0.00 0.00 0.00 0.00 0.00 0.00 0.00 0.00 0.00 0.00 0.00 0.05 0.26 0.04 0.00 0.00 0.00 0.00 0.00 0.00 0.00 0.00 0.00 0.00 0.00 0.00 0.00
0.00 0.00 0.00 0.00 0.00 0.00 0.00 0.00 0.00 0.00 0.00 0.00 0.00 0.00 0.00 0.00 0.00 0.00 0.00 0.00 0.00 0.00 0.00 0.00 0.00 0.00 0.00 0.00 0.01 0.00 0.00 0.00 0.00 0.00 0.00 0.00 0.00 0.00 0.00 0.00 0.00 0.00 0.00 0.00 0.00
0.00 0.00 0.00 0.00 0.00 0.00 0.00 0.00 0.00 0.00 0.00 0.00 0.00 0.00 0.00 0.00 0.00 0.00 0.00 0.00 0.00 0.00 0.00 0.00 0.00 0.00 0.00 0.00 0.00 0.00 0.00 0.00 0.00 0.00 0.00 0.01 0.00 0.00 0.00 0.00 0.00 0.00 0.00 0.00 0.00
0.00 0.00 0.00 0.00 0.00 0.00 0.00 0.00 0.00 0.00 0.00 0.00 0.00 0.00 0.00 0.00 0.00 0.00 0.00 0.00 0.00 0.00 0.00 0.00 0.00 0.00 0.00 0.00 0.00 0.00 0.00 0.00 0.00 0.00 0.00 0.00 0.00 0.00 0.00 0.00 0.00 0.00 0.00 0.00 0.00
0.00 0.00 0.00 0.00 0.00 0.00 0.00 0.00 0.00 0.00 0.00 0.00 0.00 0.00 0.00 0.00 0.00 0.00 0.00 0.00 0.00 0.00 0.00 0.00 0.00 0.00 0.00 0.00 0.00 0.00 0.00 0.00 0.00 0.00 0.00 0.00 0.00 0.00 0.00 0.00 0.00 0.00 0.00 0.00 0.00
0.00 0.00 0.00 0.00 0.00 0.00 0.00 0.00 0.00 0.00 0.00 0.00 0.00 0.00 0.00 0.00 0.00 0.00 0.00 0.00 0.00 0.00 0.00 0.00 0.00 0.00 0.00 0.00 0.00 0.00 0.00 0.00 0.00 0.00 0.00 0.00 0.00 0.00 0.00 0.00 0.00 0.00 0.00 0.00 0.00
0.00 0.00 0.00 0.00 0.00 0.00 0.00 0.00 0.00 0.00 0.00 0.00 0.00 0.00 0.00 0.00 0.00 0.00 0.00 0.00 0.00 0.00 0.00 0.00 0.00 0.00 0.00 0.00 0.00 0.00 0.00 0.00 0.00 0.00 0.00 0.00 0.00 0.00 0.00 0.00 0.00 0.00 0.00 0.00 0.00
0.00 0.00 0.00 0.00 0.00 0.00 0.00 0.00 0.00 0.00 0.00 0.00 0.00 0.00 0.00 0.00 0.00 0.00 0.00 0.00 0.00 0.00 0.00 0.00 0.00 0.00 0.00 0.00 0.00 0.00 0.00 0.00 0.00 0.00 0.00 0.00 0.00 0.00 0.00 0.00 0.00 0.00 0.00 0.00 0.00
0.00 0.00 0.00 0.00 0.00 0.00 0.00 0.00 0.00 0.00 0.00 0.00 0.00 0.00 0.00 0.00 0.00 0.00 0.00 0.00 0.00 0.00 0.00 0.00 0.00 0.00 0.00 0.00 0.00 0.00 0.00 0.00 0.00 0.00 0.00 0.00 0.00 0.00 0.00 0.00 0.00 0.00 0.00 0.00 0.00
0.00 0.00 0.00 0.00 0.00 0.00 0.00 0.00 0.00 0.00 0.00 0.00 0.00 0.00 0.00 0.00 0.00 0.00 0.00 0.00 0.00 0.00 0.00 0.00 0.00 0.00 0.00 0.00 0.00 0.00 0.00 0.00 0.00 0.00 0.00 0.00 0.00 0.00 0.00 0.00 0.00 0.00 0.00 0.00 0.00
0.00 0.00 0.00 0.00 0.00 0.00 0.00 0.00 0.00 0.00 0.00 0.00 0.00 0.00 0.00 0.00 0.00 0.00 0.00 0.00 0.00 0.00 0.00 0.00 0.00 0.00 0.00 0.00 0.00 0.00 0.00 0.00 0.00 0.00 0.00 0.00 0.00 0.00 0.00 0.00 0.00 0.00 0.00 0.00 0.00
0.00 0.00 0.00 0.00 0.00 0.00 0.00 0.00 0.00 0.00 0.00 0.00 0.00 0.00 0.00 0.00 0.00 0.00 0.00 0.00 0.00 0.00 0.00 0.00 0.00 0.00 0.00 0.00 0.00 0.00 0.00 0.00 0.00 0.00 0.00 0.00 0.00 0.00 0.00 0.00 0.00 0.00 0.00 0.00 0.00
0.00 0.00 0.00 0.00 0.00 0.00 0.00 0.00 0.00 0.00 0.00 0.00 0.00 0.00 0.00 0.00 0.00 0.00 0.00 0.00 0.00 0.00 0.00 0.00 0.00 0.00 0.00 0.00 0.00 0.00 0.00 0.00 0.00 0.00 0.00 0.00 0.00 0.00 0.00 0.00 0.00 0.00 0.00 0.00 0.00
0.00 0.00 0.00 0.00 0.00 0.00 0.00 0.00 0.00 0.00 0.00 0.00 0.00 0.00 0.00 0.00 0.00 0.00 0.00 0.00 0.00 0.00 0.00 0.00 0.00 0.00 0.00 0.00 0.00 0.00 0.00 0.00 0.00 0.00 0.00 0.00 0.00 0.00 0.00 0.00 0.00 0.00 0.00 0.00 0.00
0.00 0.00 0.00 0.00 0.00 0.00 0.00 0.00 0.00 0.00 0.00 0.00 0.00 0.00 0.00 0.00 0.00 0.00 0.00 0.00 0.00 0.00 0.00 0.00 0.00 0.00 0.00 0.00 0.00 0.00 0.00 0.00 0.00 0.00 0.00 0.00 0.00 0.00 0.00 0.00 0.00 0.00 0.00 0.00 0.00
0.00 0.02 0.03 0.00 0.00 0.00 0.00 0.00 0.00 0.00 0.00 0.00 0.00 0.00 0.00 0.00 0.00 0.00 0.00 0.00 0.00 0.00 0.00 0.00 0.00 0.00 0.00 0.00 0.00 0.00 0.00 0.00 0.00 0.00 0.00 0.00 0.00 0.00 0.00 0.00 0.00 0.00 0.00 0.00 0.00
0.02 0.07 0.14 0.05 0.01 0.00 0.00 0.00 0.00 0.00 0.00 0.00 0.00 0.00 0.00 0.00 0.00 0.00 0.00 0.00 0.00 0.00 0.00 0.00 0.00 0.00 0.00 0.00 0.00 0.00 0.00 0.00 0.00 0.00 0.00 0.00 0.00 0.00 0.00 0.00 0.00 0.00 0.00 0.00 0.00
0.05 0.03 0.01 0.02 0.01 0.00 0.00 0.00 0.00 0.00 0.00 0.00 0.00 0.00 0.00 0.00 0.00 0.00 0.00 0.00 0.00 0.00 0.00 0.00 0.00 0.00 0.00 0.00 0.00 0.00 0.00 0.00 0.00 0.00 0.00 0.00 0.00 0.00 0.00 0.00 0.00 0.00 0.00 0.00 0.00
0.04 0.01 0.01 0.00 0.00 0.00 0.00 0.00 0.00 0.00 0.00 0.00 0.00 0.00 0.00 0.00 0.00 0.00 0.00 0.00 0.00 0.00 0.00 0.00 0.00 0.00 0.00 0.00 0.00 0.00 0.00 0.00 0.00 0.00 0.00 0.00 0.00 0.00 0.00 0.00 0.00 0.00 0.00 0.00 0.00
MSLP
1018.46 1018.00 1017.47 1017.01 1016.58 1016.17 1015.68 1015.11 1014.51 1014.02 1013.53 1012.88 1012.12 1011.55 1011.13 1010.59 1009.37 1008.39 1006.57 1004.81 1004.96 1004.67 1005.25 1003.87 1003.05 1001.97 1000.86 1000.25 999.28 998.95 999.48 999.23 999.56 1000.42 1001.90 1002.43 1003.24 1004.91 1006.26 1007.72 1008.93 1009.73 1011.96 1013.68 1014.62
1018.48 1018.12 1017.74 1017.25 1016.71 1016.18 1015.71 1015.17 1014.48 1013.85 1013.40 1012.88 1012.15 1011.53 1011.17 1010.79 1009.08 1006.31 1004.62 1004.64 1004.47 1004.77 1004.57 1002.84 1001.35 1000.34 999.33 998.68 1000.67 1000.08 998.77 999.46 1000.02 1000.97 1001.50 1002.08 1003.43 1004.72 1006.43 1008.12 1009.85 1010.99 1012.75 1013.78 1014.62
1018.48 1018.10 1017.66 1017.19 1016.72 1016.31 1015.84 1015.25 1014.62 1013.91 1013.18 1012.72 1012.12 1011.50 1011.03 1010.67 1007.87 1003.96 1004.47 1004.53 1004.48 1004.66 1004.09 1002.82 1001.46 1000.29 998.98 997.91 1000.77 999.00 999.09 999.80 1000.38 1000.96 1001.86 1002.75 1003.36 1003.64 1005.23 1007.83 1009.75 1011.19 1012.63 1013.69 1014.52
1018.54 1018.07 1017.59 1017.08 1016.56 1016.07 1015.64 1015.12 1014.59 1013.98 1013.21 1012.53 1012.09 1011.41 1010.84 1009.63 1006.16 1003.95 1004.18 1004.22 1004.41 1004.18 1003.82 1002.66 1000.86 999.48 998.35 998.10 998.71 998.86 999.51 1000.14 1000.79 1001.18 1001.92 1002.56 1003.36 1004.54 1005.55 1007.53 1009.71 1011.45 1012.47 1013.43 1014.16
1018.81 1018.21 1017.62 1017.06 1016.41 1015.84 1015.29 1014.78 1014.25 1013.74 1013.11 1012.40 1012.00 1011.58 1010.10 1007.91 1004.45 1003.40 1003.96 1003.98 1004.09 1004.00 1003.22 1002.06 1000.36 998.99 997.90 998.19 999.03 999.43 1000.11 1000.59 1000.91 1001.56 1002.18 1003.07 1004.38 1005.75 1006.95 1008.45 1010.32 1011.71 1012.55 1013.23 1014.11
1019.11 1018.50 1017.79 1017.07 1016.43 1015.70 1015.01 1014.35 1013.85 1013.36 1012.81 1012.15 1011.84 1011.71 1010.12 1006.36 1003.01 1002.50 1003.12 1002.90 1003.02 1002.83 1002.37 1001.70 1000.35 999.38 998.73 999.25 1000.94 1000.57 1000.86 1001.28 1001.66 1001.94 1002.46 1003.47 1004.58 1006.09 1007.80 1008.87 1010.66 1011.79 1012.36 1012.87 1013.54
1019.19 1018.64 1017.99 1017.24 1016.40 1015.66 1014.83 1014.02 1013.35 1012.88 1012.42 1011.84 1011.59 1011.10 1008.36 1004.64 1002.41 1001.94 1002.37 1002.34 1002.00 1001.87 1001.52 1001.01 1000.21 999.73 999.11 999.40 1001.13 1001.43 1001.37 1001.86 1001.74 1001.77 1002.21 1002.70 1004.15 1006.28 1008.00 1009.27 1010.67 1011.31 1012.11 1012.71 1013.12
1019.17 1018.61 1017.99 1017.24 1016.46 1015.48 1014.58 1013.63 1012.84 1012.26 1011.91 1011.51 1011.33 1010.38 1006.54 1003.52 1003.11 1002.53 1002.14 1001.86 1001.64 1001.22 1001.13 1000.71 1000.18 1000.15 1000.12 1000.48 1001.72 1003.18 1003.66 1002.72 1001.45 1001.14 1001.65 1001.86 1004.16 1006.10 1007.64 1008.82 1009.74 1010.86 1011.75 1012.41 1012.76
1019.20 1018.57 1017.89 1017.18 1016.28 1015.35 1014.21 1013.00 1011.97 1011.47 1011.23 1011.16 1010.73 1008.90 1004.80 1002.46 1002.33 1001.85 1001.62 1001.45 1001.12 1001.06 1000.98 1000.78 1000.57 1000.39 1000.73 1001.22 1003.16 1006.38 1006.90 1003.79 1002.10 1000.20 1000.67 1001.19 1003.41 1005.40 1006.72 1007.77 1008.98 1010.10 1010.90 1011.62 1012.22
1019.21 1018.53 1017.82 1016.92 1016.12 1015.08 1013.90 1011.75 1010.48 1010.88 1010.42 1009.74 1008.61 1007.44 1003.42 1001.35 1001.10 1001.17 1001.22 1001.17 1000.85 1000.61 1000.64 1000.59 1000.49 999.96 999.75 999.99 1003.65 1006.37 1005.98 1004.54 1002.43 1000.44 999.87 1000.63 1002.29 1004.32 1005.31 1006.11 1007.57 1008.66 1009.55 1010.10 1010.91
1019.19 1018.58 1017.72 1016.78 1015.73 1014.90 1013.83 1010.54 1009.69 1009.61 1008.51 1006.02 1004.29 1003.26 1001.06 1000.60 1000.05 1000.13 1000.50 1000.73 1000.67 1000.30 1000.04 1000.03 999.88 999.09 998.61 999.69 1003.01 1002.27 1003.30 1002.52 1000.76 999.38 999.57 1001.47 1001.87 1002.88 1004.03 1004.58 1005.80 1007.03 1008.15 1008.80 1009.39
1019.13 1018.54 1017.77 1016.58 1015.42 1014.43 1013.85 1010.59 1008.58 1008.55 1006.64 1004.56 1003.75 1002.42 1001.21 1000.10 999.82 999.64 999.83 1000.08 1000.12 999.67 999.83 999.55 998.83 998.48 998.15 998.53 1000.38 1001.11 1000.29 999.56 998.97 998.78 999.06 999.50 1000.55 1001.85 1002.76 1003.26 1004.20 1005.34 1006.72 1007.52 1008.31
1019.17 1018.57 1017.79 1016.51 1014.88 1013.34 1011.39 1009.68 1008.78 1008.13 1006.36 1003.12 1001.83 1000.90 1000.57 999.95 999.31 999.01 999.44 999.36 999.40 999.32 998.89 998.53 998.03 997.84 997.43 997.58 998.06 997.68 996.94 997.52 997.86 998.34 998.31 998.46 999.49 1000.69 1001.78 1002.26 1002.97 1003.98 1005.25 1006.11 1006.97
1019.21 1018.67 1018.00 1016.80 1014.27 1012.85 1010.60 1009.23 1008.95 1008.40 1005.66 1000.86 999.00 998.46 999.14 999.37 998.68 998.64 998.55 998.91 998.93 998.49 998.39 998.13 997.23 997.02 996.58 996.68 996.92 996.15 997.05 996.94 997.21 997.59 997.47 998.03 998.45 999.32 1000.32 1001.24 1001.93 1002.90 1004.06 1004.96 1005.95
1019.23 1018.80 1018.29 1017.63 1016.09 1013.11 1011.03 1010.25 1009.51 1008.40 1003.79 996.72 995.31 995.71 997.04 997.81 997.63 997.85 997.76 998.31 997.92 997.74 998.02 997.18 996.67 996.19 995.92 995.68 996.11 995.96 995.89 996.47 997.09 997.16 997.11 997.29 998.02 998.30 999.23 1000.08 1000.86 1001.64 1002.71 1003.80 1004.95
1019.16 1018.76 1018.41 1016.03 1014.62 1013.03 1011.55 1010.53 1009.56 1007.25 1000.76 995.98 993.22 994.69 995.92 996.84 997.40 996.94 997.40 997.84 998.02 997.54 997.29 996.71 996.40 995.73 995.56 995.47 995.75 996.06 996.32 996.50 997.09 997.19 996.77 996.38 996.95 997.57 997.81 998.66 999.43 1000.27 1001.35 1002.45 1003.78
1018.96 1018.47 1018.38 1017.05 1014.69 1013.21 1012.44 1010.83 1008.30 1003.55 999.46 995.52 994.08 994.53 995.14 995.61 996.48 996.20 996.67 996.72 996.65 996.79 996.09 996.22 995.46 995.38 995.09 995.06 995.62 995.97 996.23 996.68 997.16 996.97 996.27 995.50 996.13 996.18 996.58 997.20 998.00 998.93 1000.09 1001.30 1002.57
1018.41 1017.98 1016.33 1015.16 1014.24 1013.25 1012.37 1010.71 1005.67 1000.21 998.13 994.71 993.64 994.33 994.20 994.68 995.30 995.57 995.66 995.81 996.43 996.16 995.67 995.25 995.06 994.52 994.74 994.79 995.29 995.67 995.85 996.05 996.43 995.94 995.32 995.20 994.94 995.27 995.54 996.10 996.81 997.65 998.86 1000.15 1001.44
1018.04 1015.81 1013.72 1012.49 1012.22 1012.44 1011.68 1008.23 1002.64 999.80 997.61 995.17 993.03 993.24 993.69 993.81 994.24 994.77 994.18 994.69 995.04 995.12 994.87 994.52 994.48 994.61 994.48 994.81 995.31 995.44 995.58 996.10 995.98 995.21 994.94 994.89 994.60 994.80 995.06 995.54 996.15 996.68 997.65 998.94 1000.19
1017.59 1015.34 1012.30 1011.48 1010.93 1010.81 1009.90 1006.09 1003.09 1000.53 997.64 996.00 993.85 992.54 992.61 992.90 993.07 993.41 993.03 993.54 993.97 994.54 994.54 993.88 994.12 993.92 994.18 994.55 995.09 995.05 995.66 996.29 995.89 995.49 995.09 994.28 994.08 994.06 994.34 994.87 995.63 996.15 996.73 997.77 999.07
1017.16 1013.50 1010.04 1008.85 1010.12 1009.41 1007.23 1005.71 1004.51 1001.78 999.12 997.60 995.30 993.11 992.08 991.86 991.96 991.85 992.04 992.56 993.12 993.58 993.97 993.62 993.37 993.61 993.85 993.78 994.46 995.10 995.10 995.53 995.82 995.57 994.83 994.45 994.02 993.07 993.60 994.25 994.92 995.49 996.20 996.96 997.98
1015.40 1012.83 1009.74 1009.78 1009.21 1008.33 1007.10 1006.45 1005.29 1002.48 1000.34 998.85 996.79 994.24 991.84 991.25 991.11 991.05 990.86 991.07 992.00 992.53 992.77 993.09 993.05 992.66 992.68 993.32 994.28 994.62 994.93 995.15 995.22 995.21 994.61 993.82 993.30 992.14 993.06 993.79 994.24 995.01 995.69 996.37 997.25
1015.12 1012.24 1010.33 1010.31 1009.11 1007.80 1007.20 1005.99 1004.84 1003.35 1000.92 999.47 997.01 994.74 992.69 991.69 990.76 990.23 990.07 990.43 991.16 991.62 991.83 992.76 992.63 992.20 992.08 992.62 993.21 993.72 994.16 994.67 994.90 995.02 994.32 993.93 993.38 992.60 993.11 993.64 994.35 994.93 995.63 996.34 996.98
1016.08 1013.30 1012.08 1009.94 1009.03 1007.70 1006.31 1005.11 1003.98 1003.03 1001.46 999.84 997.69 995.60 993.76 992.51 990.98 989.76 989.16 989.29 990.00 990.54 991.73 992.50 992.36 992.04 991.40 991.17 992.31 993.26 993.38 993.74 994.07 993.98 993.81 993.34 993.07 993.19 993.32 993.82 994.61 995.16 995.80 996.63 997.32
1015.67 1014.81 1014.74 1012.32 1010.51 1008.79 1006.55 1005.03 1003.19 1001.85 1000.84 1000.09 998.00 995.92 994.21 993.15 991.40 989.69 988.90 988.92 988.98 989.83 990.96 991.68 991.91 992.18 991.90 991.37 991.64 992.33 992.84 992.71 993.06 993.20 993.05 992.67 992.61 993.79 993.59 993.97 994.47 995.26 996.00 996.98 997.86
1017.06 1015.83 1014.36 1012.54 1011.42 1009.37 1006.27 1005.23 1003.38 1000.94 1000.17 999.13 997.95 996.20 995.11 993.72 992.15 990.46 989.45 988.71 988.54 989.19 989.96 991.04 991.59 992.43 992.15 991.79 991.27 991.30 991.99 992.29 992.45 992.66 992.74 992.34 991.97 992.49 992.85 993.23 994.17 995.02 995.90 997.09 998.10
1016.85 1015.90 1014.70 1012.31 1010.87 1008.82 1006.87 1005.21 1003.24 1001.61 999.30 998.81 997.97 997.09 995.90 994.81 994.20 992.50 990.78 989.29 989.04 988.91 989.55 990.67 991.46 992.40 992.32 992.18 991.60 990.72 990.57 991.31 991.83 992.03 992.24 991.89 991.95 992.03 992.51 993.06 993.92 994.87 995.92 997.06 998.12
Thickness
5723 5727 5732 5737 5742 5747 5753 5760 5767 5773 5779 5787 5795 5801 5807 5813 5825 5835 5840 5863 5866 5870 5867 5873 5877 5882 5892 5880 5894 5900 5851 5839 5844 5833 5827 5848 5833 5836 5833 5810 5808 5808 5787 5779 5779
5720 5724 5728 5733 5739 5745 5751 5757 5765 5772 5778 5785 5793 5800 5805 5810 5826 5841 5868 5870 5872 5871 5865 5869 5873 5885 5880 5885 5865 5860 5857 5846 5861 5852 5842 5848 5838 5831 5816 5804 5792 5791 5785 5782 5777
5717 5722 5727 5732 5737 5742 5747 5754 5761 5769 5778 5784 5791 5799 5805 5810 5826 5854 5869 5871 5872 5872 5873 5879 5883 5881 5874 5902 5844 5877 5851 5864 5861 5862 5856 5843 5840 5853 5828 5799 5796 5784 5780 5780 5775
5714 5719 5724 5730 5736 5741 5746 5752 5758 5765 5774 5782 5789 5796 5804 5815 5799 5858 5869 5872 5873 5876 5871 5871 5877 5870 5879 5880 5894 5861 5873 5867 5863 5866 5855 5844 5850 5834 5833 5816 5811 5797 5790 5783 5775
5707 5714 5720 5727 5734 5740 5746 5752 5758 5764 5772 5780 5786 5792 5808 5812 5831 5871 5870 5873 5875 5872 5865 5867 5869 5878 5880 5890 5883 5867 5866 5869 5870 5864 5857 5854 5834 5824 5819 5821 5810 5798 5791 5783 5777
5699 5706 5715 5723 5730 5737 5745 5752 5758 5764 5771 5778 5783 5787 5798 5798 5868 5878 5877 5878 5874 5872 5869 5874 5875 5889 5885 5869 5852 5871 5868 5863 5864 5860 5858 5840 5834 5827 5818 5822 5804 5795 5791 5790 5785
5693 5699 5707 5716 5725 5733 5742 5751 5758 5764 5770 5777 5781 5788 5800 5823 5871 5881 5878 5875 5883 5879 5867 5885 5893 5883 5891 5883 5879 5867 5854 5858 5859 5862 5853 5859 5828 5814 5821 5816 5800 5798 5796 5793 5792
5689 5694 5701 5709 5718 5729 5739 5750 5758 5765 5770 5775 5779 5787 5800 5853 5863 5867 5875 5874 5886 5890 5885 5893 5898 5883 5873 5880 5862 5828 5827 5815 5861 5867 5865 5863 5808 5825 5828 5816 5808 5804 5800 5796 5797
5682 5688 5696 5703 5713 5724 5736 5750 5760 5766 5770 5773 5779 5788 5804 5860 5850 5869 5876 5863 5877 5883 5887 5892 5886 5869 5871 5852 5816 5782 5759 5797 5832 5885 5870 5863 5825 5833 5837 5826 5812 5808 5806 5803 5802
5674 5682 5689 5699 5707 5719 5732 5753 5764 5764 5771 5778 5788 5782 5823 5833 5855 5865 5876 5873 5864 5869 5865 5865 5862 5854 5862 5860 5781 5767 5777 5794 5804 5867 5879 5861 5844 5842 5845 5839 5824 5820 5818 5818 5814
5665 5672 5682 5692 5704 5713 5724 5752 5757 5757 5770 5787 5801 5806 5831 5852 5869 5861 5871 5862 5862 5857 5835 5857 5838 5834 5859 5858 5824 5834 5822 5813 5855 5885 5869 5837 5846 5849 5851 5850 5838 5832 5827 5827 5826
5654 5662 5671 5685 5697 5709 5715 5736 5753 5758 5757 5795 5800 5815 5832 5850 5831 5851 5871 5841 5839 5829 5847 5840 5828 5862 5880 5881 5847 5837 5838 5859 5878 5888 5877 5870 5853 5859 5859 5857 5854 5846 5836 5835 5835
5638 5648 5659 5673 5692 5709 5725 5732 5756 5756 5746 5783 5807 5815 5821 5838 5830 5840 5855 5850 5836 5831 5840 5831 5852 5874 5878 5874 5865 5875 5883 5876 5868 5880 5888 5883 5859 5855 5865 5869 5867 5863 5855 5850 5845
5621 5631 5642 5658 5686 5699 5711 5736 5742 5749 5726 5780 5806 5824 5826 5832 5821 5855 5865 5851 5838 5832 5844 5843 5873 5868 5873 5869 5879 5869 5888 5889 5879 5866 5848 5885 5832 5859 5864 5861 5865 5864 5859 5856 5853
5599 5610 5622 5635 5654 5678 5703 5722 5728 5731 5698 5820 5830 5865 5844 5823 5838 5839 5870 5849 5831 5841 5843 5838 5855 5865 5864 5879 5890 5877 5906 5889 5881 5871 5871 5871 5847 5862 5873 5856 5863 5869 5869 5867 5865
5576 5589 5601 5627 5646 5664 5686 5702 5708 5692 5707 5796 5839 5821 5816 5823 5824 5844 5843 5857 5858 5843 5851 5854 5882 5883 5881 5893 5894 5901 5885 5884 5879 5871 5841 5875 5863 5851 5865 5869 5875 5881 5880 5879 5874
5551 5566 5580 5598 5623 5649 5668 5678 5674 5690 5775 5792 5801 5818 5815 5814 5815 5828 5821 5820 5817 5802 5817 5843 5857 5882 5895 5878 5890 5884 5869 5831 5822 5829 5834 5896 5868 5869 5896 5898 5895 5890 5888 5888 5885
5526 5541 5569 5591 5607 5628 5642 5646 5663 5741 5759 5817 5817 5812 5803 5818 5815 5820 5819 5812 5829 5832 5828 5817 5812 5864 5886 5877 5865 5869 5871 5842 5805 5825 5853 5895 5865 5878 5916 5920 5917 5912 5906 5900 5893
5498 5529 5561 5588 5601 5610 5615 5632 5694 5738 5773 5792 5823 5797 5798 5815 5817 5815 5821 5820 5833 5843 5820 5824 5826 5875 5884 5887 5881 5865 5853 5885 5860 5881 5866 5877 5896 5910 5920 5913 5915 5914 5911 5904 5901
5481 5502 5539 5565 5586 5594 5601 5641 5690 5734 5768 5788 5782 5813 5790 5804 5806 5809 5817 5837 5834 5849 5863 5852 5823 5867 5877 5887 5881 5873 5890 5841 5856 5820 5822 5867 5874 5875 5898 5902 5910 5911 5914 5912 5910
5470 5498 5537 5558 5565 5576 5604 5635 5663 5708 5741 5748 5768 5796 5811 5807 5814 5814 5820 5838 5847 5848 5860 5859 5854 5850 5870 5851 5847 5855 5855 5864 5867 5862 5839 5836 5855 5919 5909 5914 5911 5917 5922 5920 5917
5475 5487 5522 5528 5537 5567 5586 5612 5639 5678 5716 5723 5746 5772 5810 5822 5813 5815 5817 5837 5858 5858 5837 5860 5854 5838 5849 5879 5879 5870 5859 5865 5842 5834 5866 5869 5868 5941 5928 5925 5926 5923 5926 5929 5927
5466 5486 5505 5510 5515 5548 5574 5598 5624 5652 5687 5701 5728 5765 5798 5798 5806 5824 5831 5856 5858 5851 5844 5858 5839 5829 5843 5866 5873 5854 5866 5871 5875 5873 5854 5849 5866 5929 5928 5925 5924 5921 5924 5926 5927
5453 5470 5479 5502 5520 5539 5561 5584 5607 5646 5668 5691 5716 5745 5770 5777 5805 5814 5832 5853 5861 5858 5855 5858 5845 5834 5829 5854 5866 5842 5859 5871 5870 5851 5859 5871 5881 5906 5913 5910 5912 5918 5919 5920 5920
5456 5453 5448 5464 5484 5508 5549 5568 5599 5630 5668 5679 5696 5728 5753 5757 5786 5808 5835 5844 5860 5859 5852 5849 5820 5841 5855 5877 5876 5861 5857 5870 5862 5874 5860 5884 5888 5890 5905 5908 5912 5915 5912 5911 5909
5432 5442 5462 5480 5488 5505 5541 5555 5578 5636 5656 5668 5687 5722 5743 5751 5777 5795 5820 5832 5834 5855 5846 5850 5818 5835 5834 5861 5875 5863 5864 5868 5873 5876 5880 5891 5896 5922 5919 5922 5914 5910 5906 5901 5901
5438 5446 5457 5480 5495 5513 5540 5561 5586 5618 5658 5675 5692 5706 5723 5744 5751 5779 5807 5836 5846 5844 5835 5831 5826 5814 5805 5844 5852 5842 5866 5867 5872 5885 5883 5869 5899 5926 5916 5914 5908 5905 5902 5897 5898